FW1007 Weather Reports


time (UTC)temp
C
wind
direction
speed
KPH
gust
KPH
rain 1hr
cm
rain 24hr
cm
rain mn
cm
humidity
%
barometer
mb
20260507013522 9 307 1.6 6.4 0.00 0.23 0.00 92 1011.1
20260507013024 9 343 0.0 6.4 0.00 0.23 0.00 92 1011.1
20260507012520 9 286 1.6 4.8 0.00 0.23 0.00 92 1011.0
20260507012021 9 294 0.0 4.8 0.00 0.23 0.00 92 1011.0
20260507011534 9 273 1.6 4.8 0.00 0.23 0.00 92 1011.0
20260507011019 9 294 1.6 8.0 0.00 0.23 0.00 92 1011.0
20260507010519 10 299 3.2 8.0 0.00 0.23 0.00 92 1010.9
20260507010019 10 286 1.6 4.8 0.00 0.23 0.00 92 1010.9
20260507005519 10 274 0.0 4.8 0.00 0.23 0.00 92 1010.9
20260507005018 10 259 0.0 4.8 0.00 0.23 0.00 92 1011.0
20260507004517 10 264 0.0 4.8 0.00 0.23 0.00 92 1010.9
20260507004017 10 254 1.6 4.8 0.00 0.23 0.00 92 1010.9
20260507003517 10 285 1.6 4.8 0.00 0.23 0.00 92 1010.8
20260507003015 10 282 0.0 4.8 0.00 0.23 0.00 92 1010.9
20260507002515 10 273 0.0 6.4 0.00 0.23 0.00 92 1010.8
20260507002015 10 290 1.6 6.4 0.00 0.23 0.00 92 1010.7
20260507001543 10 263 0.0 4.8 0.00 0.23 0.00 92 1010.6
20260507001016 10 306 1.6 4.8 0.00 0.23 0.00 92 1010.7
20260507000514 10 303 0.0 4.8 0.00 0.23 0.00 92 1010.7
20260507000016 10 299 1.6 6.4 0.00 0.23 0.00 92 1010.7
20260506235514 10 260 1.6 6.4 0.00 0.25 0.00 92 1010.7
20260506235014 10 290 1.6 6.4 0.00 0.25 0.00 92 1010.6
20260506234513 10 290 3.2 6.4 0.00 0.25 0.00 92 1010.7
20260506234013 10 285 1.6 6.4 0.00 0.25 0.00 92 1010.7
20260506233513 10 317 1.6 6.4 0.00 0.25 0.00 92 1010.6
20260506233012 10 275 1.6 8.0 0.00 0.25 0.00 92 1010.6
20260506232511 10 273 3.2 8.0 0.00 0.25 0.00 92 1010.6
20260506232011 10 303 1.6 4.8 0.00 0.25 0.00 92 1010.6
20260506231511 10 273 1.6 8.0 0.00 0.25 0.00 92 1010.6
20260506231009 10 248 1.6 8.0 0.00 0.25 0.00 92 1010.5
20260506230515 10 279 1.6 6.4 0.00 0.25 0.00 92 1010.5
20260506230009 10 277 1.6 6.4 0.00 0.25 0.00 92 1010.5
20260506225509 10 270 1.6 4.8 0.00 0.51 0.00 92 1010.4
20260506225008 10 281 1.6 6.4 0.00 0.51 0.00 92 1010.4
20260506224508 10 279 1.6 6.4 0.00 0.51 0.00 92 1010.3
20260506224007 10 290 1.6 6.4 0.00 0.51 0.00 92 1010.3
20260506223507 10 277 1.6 8.0 0.00 0.51 0.00 92 1010.3
20260506223006 10 296 3.2 8.0 0.00 0.51 0.00 92 1010.3
20260506222510 10 299 0.0 6.4 0.00 0.51 0.00 92 1010.2
20260506222005 10 348 1.6 9.7 0.00 0.51 0.00 92 1010.2
20260506221506 10 296 1.6 9.7 0.00 0.51 0.00 92 1010.1
20260506221005 10 303 1.6 9.7 0.00 0.51 0.00 92 1010.1
20260506220505 10 308 3.2 9.7 0.00 0.51 0.00 92 1010.1
20260506220004 10 313 0.0 8.0 0.00 0.51 0.51 92 1010.1
20260506215504 10 298 1.6 6.4 0.00 0.51 0.51 92 1010.1
20260506215006 10 294 0.0 8.0 0.00 0.51 0.51 92 1010.0
20260506214503 10 291 0.0 8.0 0.00 0.51 0.51 92 1010.0
20260506214003 10 309 1.6 6.4 0.00 0.51 0.51 92 1010.0
20260506213503 10 302 1.6 4.8 0.00 0.51 0.51 92 1009.9
20260506213106 10 339 0.0 4.8 0.00 0.51 0.51 92 1010.0
20260506212602 10 267 1.6 4.8 0.00 0.51 0.51 92 1009.9
20260506212102 10 5 0.0 4.8 0.00 0.51 0.51 92 1009.8
20260506211559 10 320 0.0 6.4 0.00 0.51 0.51 92 1009.8
20260506211059 10 286 1.6 6.4 0.00 0.51 0.51 92 1009.7
20260506210559 10 294 1.6 4.8 0.00 0.51 0.51 92 1009.7
20260506205601 10 277 0.0 6.4 0.00 0.51 0.51 92 1009.6
20260506205056 10 323 0.0 6.4 0.00 0.51 0.51 92 1009.6
20260506204558 10 280 1.6 6.4 0.00 0.51 0.51 92 1009.5
20260506204056 10 289 1.6 8.0 0.00 0.51 0.51 92 1009.5
20260506203554 10 293 1.6 9.7 0.00 0.51 0.51 92 1009.4
20260506203112 10 284 1.6 11.3 0.00 0.51 0.51 92 1009.4
20260506202553 11 294 1.6 8.0 0.00 0.51 0.51 92 1009.4
20260506202053 11 285 3.2 8.0 0.00 0.51 0.51 92 1009.4
20260506201552 11 303 1.6 6.4 0.00 0.51 0.51 92 1009.3
20260506201054 11 302 1.6 11.3 0.00 0.51 0.51 92 1009.2
20260506200557 11 286 1.6 11.3 0.00 0.51 0.51 92 1009.2
20260506200056 11 294 1.6 11.3 0.00 0.51 0.51 92 1009.2
20260506195550 11 310 1.6 9.7 0.00 0.51 0.51 92 1009.1
20260506195050 11 275 1.6 6.4 0.00 0.51 0.51 92 1009.1
20260506194550 11 277 0.0 8.0 0.00 0.51 0.51 92 1009.1
20260506194048 11 281 3.2 8.0 0.00 0.51 0.51 92 1009.0
20260506193547 11 265 1.6 6.4 0.00 0.51 0.51 92 1009.0
20260506193050 11 295 1.6 6.4 0.00 0.51 0.51 92 1008.9
20260506192546 11 339 1.6 6.4 0.00 0.51 0.51 92 1008.8
20260506192045 11 294 1.6 6.4 0.00 0.51 0.51 92 1008.8
20260506191545 11 288 1.6 4.8 0.00 0.51 0.51 92 1008.7
20260506191044 11 294 0.0 6.4 0.00 0.51 0.51 92 1008.7
20260506190543 12 289 1.6 6.4 0.00 0.51 0.51 92 1008.6
20260506190045 12 287 0.0 0.0 0.00 0.51 0.51 92 1008.4
20260506185542 12 287 0.0 0.0 0.00 0.51 0.51 92 1008.4
20260506185041 12 254 0.0 0.0 0.00 0.51 0.51 92 1008.3
20260506184545 12 260 0.0 1.6 0.00 0.51 0.51 92 1008.3
20260506184040 12 272 0.0 4.8 0.00 0.51 0.51 91 1008.2
20260506183542 12 294 0.0 4.8 0.00 0.51 0.51 91 1008.2
20260506183038 12 329 0.0 6.4 0.00 0.51 0.51 91 1008.0
20260506182537 12 288 1.6 6.4 0.00 0.51 0.51 91 1008.0
20260506182037 12 290 1.6 4.8 0.00 0.51 0.51 91 1007.9
20260506181541 12 271 1.6 4.8 0.00 0.51 0.51 91 1007.9
20260506181036 12 286 0.0 4.8 0.00 0.51 0.51 91 1007.7
20260506180538 12 292 0.0 4.8 0.00 0.51 0.51 91 1007.7
20260506180036 12 285 0.0 6.4 0.03 0.51 0.51 91 1007.6
20260506175535 12 265 1.6 6.4 0.05 0.51 0.51 91 1007.6
20260506175035 13 289 0.0 6.4 0.08 0.51 0.51 91 1007.5
20260506174538 13 300 0.0 4.8 0.10 0.51 0.51 90 1007.5
20260506174035 13 333 0.0 6.4 0.15 0.51 0.51 90 1007.3
20260506173535 13 336 0.0 6.4 0.18 0.51 0.51 90 1007.2
20260506173036 13 323 1.6 4.8 0.18 0.51 0.51 90 1007.2
20260506172534 13 318 0.0 4.8 0.18 0.51 0.51 90 1007.2
20260506172034 13 316 0.0 6.4 0.18 0.51 0.51 89 1007.2
20260506171536 13 286 1.6 4.8 0.18 0.51 0.51 89 1007.2
20260506171035 13 317 1.6 4.8 0.18 0.51 0.51 89 1007.2
20260506170537 13 277 0.0 3.2 0.18 0.51 0.51 88 1007.1
20260506170038 13 328 0.0 3.2 0.15 0.51 0.48 88 1007.1
20260506165535 13 331 0.0 3.2 0.15 0.51 0.46 88 1007.1
20260506165034 14 319 0.0 3.2 0.10 0.46 0.43 87 1007.1
20260506164548 14 311 0.0 8.0 0.08 0.43 0.41 87 1007.1
20260506164033 14 323 1.6 8.0 0.03 0.38 0.33 87 1007.1
20260506163533 14 291 0.0 3.2 0.00 0.36 0.33 87 1007.0
20260506163037 14 344 0.0 3.2 0.00 0.36 0.33 86 1006.8
20260506162535 14 292 0.0 4.8 0.00 0.36 0.33 86 1006.7
20260506162034 14 340 0.0 6.4 0.00 0.36 0.33 86 1006.7
20260506161532 14 301 1.6 6.4 0.03 0.36 0.33 86 1006.8
20260506161032 15 305 0.0 4.8 0.05 0.36 0.33 86 1006.8
20260506160532 15 300 0.0 4.8 0.05 0.36 0.33 85 1006.7
20260506160035 15 313 0.0 4.8 0.05 0.36 0.33 85 1006.8
20260506155532 15 282 0.0 4.8 0.05 0.51 0.33 85 1006.8
20260506155033 15 304 0.0 4.8 0.05 0.51 0.33 84 1006.8
20260506154531 15 281 0.0 3.2 0.05 0.51 0.33 84 1006.8
20260506154031 15 308 0.0 6.4 0.05 0.51 0.33 84 1006.8
20260506153532 15 290 0.0 8.0 0.05 0.51 0.33 83 1006.7
20260506153030 15 340 0.0 8.0 0.05 0.51 0.33 82 1006.8
20260506152532 15 311 0.0 9.7 0.05 0.51 0.33 81 1006.8
20260506152030 16 307 3.2 11.3 0.05 0.51 0.33 79 1006.7
20260506151533 16 293 4.8 12.9 0.03 0.48 0.30 77 1006.6
20260506151032 16 298 4.8 12.9 0.00 0.46 0.28 73 1006.6
20260506150530 17 300 1.6 11.3 0.00 0.46 0.28 72 1006.5
20260506150030 17 255 4.8 11.3 0.00 0.46 0.28 70 1006.5
20260506145530 17 263 3.2 14.5 0.00 0.46 0.28 69 1006.4
20260506145030 17 259 4.8 12.9 0.00 0.46 0.28 69 1006.4
20260506144530 17 275 4.8 12.9 0.00 0.46 0.28 68 1006.3
20260506144029 17 111 1.6 12.9 0.00 0.46 0.28 68 1006.3
20260506143531 17 324 3.2 12.9 0.00 0.46 0.28 69 1006.2
20260506143036 17 237 3.2 11.3 0.00 0.46 0.28 68 1006.2
20260506142529 17 279 4.8 12.9 0.00 0.46 0.28 67 1006.3
20260506142027 17 206 3.2 12.9 0.00 0.46 0.28 67 1006.2
20260506141531 18 248 1.6 12.9 0.00 0.46 0.28 67 1006.2
20260506141028 18 296 3.2 12.9 0.00 0.46 0.28 67 1006.2
20260506140530 18 333 4.8 12.9 0.00 0.46 0.28 67 1006.1
20260506140027 18 217 4.8 11.3 0.00 0.46 0.28 68 1006.2
20260506135526 17 193 3.2 11.3 0.00 0.46 0.28 67 1006.2
20260506135028 17 232 1.6 12.9 0.00 0.46 0.28 67 1006.2
20260506134526 17 252 3.2 11.3 0.00 0.46 0.28 67 1006.2
20260506134026 17 217 3.2 11.3 0.00 0.46 0.28 67 1006.2
20260506133526 17 216 4.8 12.9 0.00 0.46 0.28 68 1006.3
20260506133027 17 202 1.6 12.9 0.00 0.46 0.28 68 1006.2
20260506132528 17 250 4.8 12.9 0.00 0.46 0.28 66 1006.2
20260506132025 17 325 1.6 11.3 0.00 0.46 0.28 66 1006.2
20260506131525 17 238 4.8 9.7 0.00 0.46 0.28 66 1006.2
20260506131025 17 208 3.2 12.9 0.00 0.46 0.28 66 1006.3
20260506130528 17 301 3.2 14.5 0.00 0.46 0.28 67 1006.2
20260506130027 17 245 3.2 12.9 0.00 0.46 0.28 67 1006.2
20260506125524 17 207 4.8 12.9 0.00 0.46 0.28 66 1006.2
20260506125026 17 204 3.2 9.7 0.00 0.46 0.28 68 1006.2
20260506124524 17 223 3.2 9.7 0.00 0.46 0.28 68 1006.2
20260506124024 17 246 4.8 12.9 0.00 0.46 0.28 68 1006.2
20260506123523 17 216 1.6 14.5 0.00 0.46 0.28 68 1006.3
20260506123023 17 231 3.2 11.3 0.00 0.46 0.28 68 1006.3
20260506122523 17 224 4.8 11.3 0.00 0.46 0.28 68 1006.4
20260506122022 17 227 3.2 11.3 0.00 0.46 0.28 68 1006.4
20260506121523 17 195 3.2 14.5 0.00 0.46 0.28 68 1006.4
20260506121022 17 213 8.0 14.5 0.00 0.46 0.28 68 1006.5
20260506120522 17 203 4.8 14.5 0.00 0.46 0.28 67 1006.5
20260506120046 17 264 6.4 12.9 0.00 0.46 0.28 67 1006.4
20260506115525 17 191 6.4 16.1 0.00 0.46 0.28 67 1006.4
20260506115021 17 211 4.8 16.1 0.00 0.46 0.28 67 1006.4
20260506114521 17 228 8.0 16.1 0.00 0.46 0.28 67 1006.4
20260506114021 17 259 4.8 14.5 0.00 0.46 0.28 68 1006.4
20260506113521 17 244 8.0 17.7 0.00 0.46 0.28 67 1006.5
20260506113021 17 196 8.0 17.7 0.00 0.46 0.28 67 1006.4
20260506112521 17 300 4.8 14.5 0.00 0.46 0.28 67 1006.4
20260506112020 17 150 6.4 14.5 0.00 0.46 0.28 68 1006.5
20260506111520 17 217 6.4 12.9 0.00 0.46 0.28 69 1006.5
20260506111020 17 200 6.4 11.3 0.00 0.46 0.28 68 1006.5
20260506110520 17 207 4.8 11.3 0.00 0.46 0.28 70 1006.5
20260506110020 17 264 4.8 14.5 0.00 0.46 0.28 69 1006.5
20260506105524 17 196 3.2 17.7 0.00 0.46 0.28 69 1006.6
20260506105020 17 165 6.4 19.3 0.00 0.46 0.28 68 1006.6
20260506104531 17 234 9.7 19.3 0.00 0.46 0.28 67 1006.5
20260506104024 17 202 4.8 17.7 0.00 0.46 0.28 67 1006.6
20260506103519 18 250 6.4 16.1 0.00 0.46 0.28 67 1006.5
20260506103035 18 223 4.8 16.1 0.00 0.46 0.28 67 1006.5
20260506102520 18 254 4.8 11.3 0.00 0.46 0.28 68 1006.6
20260506102018 18 312 6.4 11.3 0.00 0.46 0.28 67 1006.6
20260506101519 18 243 4.8 17.7 0.00 0.46 0.28 67 1006.6
20260506101018 18 154 4.8 17.7 0.00 0.46 0.28 68 1006.6
20260506100520 18 177 4.8 16.1 0.00 0.46 0.28 68 1006.6
20260506100015 17 248 0.0 16.1 0.00 0.46 0.28 70 1006.5
20260506095513 17 183 8.0 19.3 0.00 0.46 0.28 71 1006.5
20260506095014 17 206 8.0 19.3 0.00 0.46 0.28 72 1006.5
20260506094513 16 209 6.4 12.9 0.00 0.46 0.28 73 1006.5
20260506094012 16 193 6.4 12.9 0.00 0.46 0.28 73 1006.4
20260506093511 16 247 3.2 11.3 0.00 0.46 0.28 74 1006.5
20260506093019 16 288 4.8 11.3 0.00 0.46 0.28 74 1006.5
20260506092511 16 296 3.2 16.1 0.00 0.46 0.28 73 1006.6
20260506092011 16 248 3.2 16.1 0.00 0.46 0.28 72 1006.5
20260506091516 16 221 4.8 17.7 0.00 0.46 0.28 72 1006.6
20260506091011 16 220 8.0 17.7 0.00 0.46 0.28 71 1006.5
20260506090509 17 182 6.4 14.5 0.00 0.46 0.28 73 1006.5
20260506090008 16 21 4.8 14.5 0.00 0.46 0.28 73 1006.6
20260506085507 16 229 6.4 14.5 0.00 0.46 0.28 74 1006.5
20260506085006 16 173 6.4 16.1 0.00 0.46 0.28 75 1006.5
20260506084506 16 202 11.3 17.7 0.00 0.46 0.28 74 1006.6
20260506084010 16 247 6.4 16.1 0.00 0.46 0.28 74 1006.5
20260506083506 16 246 8.0 17.7 0.00 0.46 0.28 74 1006.4
20260506083005 16 222 6.4 16.1 0.00 0.46 0.28 75 1006.4
20260506082505 16 215 6.4 16.1 0.00 0.46 0.28 76 1006.4
20260506082003 16 180 6.4 14.5 0.00 0.46 0.28 76 1006.4
20260506081503 16 219 4.8 14.5 0.00 0.46 0.28 77 1006.4
20260506081005 16 233 4.8 14.5 0.00 0.46 0.28 78 1006.4
20260506080503 16 154 6.4 14.5 0.00 0.46 0.28 78 1006.4
20260506073058 16 178 4.8 16.1 0.00 0.46 0.28 81 1006.5
20260506072557 15 200 8.0 16.1 0.00 0.46 0.28 82 1006.4
20260506072056 15 209 6.4 12.9 0.00 0.46 0.28 83 1006.4
20260506071558 15 198 4.8 11.3 0.00 0.46 0.28 85 1006.4
20260506071052 15 184 4.8 12.9 0.00 0.46 0.28 86 1006.4
20260506070552 15 245 6.4 11.3 0.00 0.46 0.28 87 1006.5
20260506062043 13 187 4.8 11.3 0.00 0.46 0.28 94 1006.4
20260506061542 13 189 4.8 11.3 0.00 0.46 0.28 94 1006.4
20260506061041 13 249 3.2 12.9 0.00 0.46 0.28 95 1006.3
20260506060540 13 170 6.4 14.5 0.00 0.46 0.28 95 1006.4
20260506051031 12 249 1.6 12.9 0.00 0.46 0.28 96 1006.2
20260506050529 12 216 3.2 12.9 0.00 0.46 0.28 96 1006.4
20260506045027 12 202 3.2 9.7 0.00 0.46 0.28 95 1006.4
20260506044535 12 207 3.2 9.7 0.00 0.46 0.28 95 1006.4
20260506044028 12 196 3.2 9.7 0.00 0.46 0.28 95 1006.3
20260506043533 12 208 3.2 9.7 0.00 0.46 0.28 95 1006.3
20260506043025 12 205 3.2 9.7 0.00 0.46 0.28 95 1006.3
20260506042525 12 209 3.2 9.7 0.00 0.46 0.28 95 1006.4
20260506042024 12 177 3.2 8.0 0.00 0.46 0.28 95 1006.4
20260506041524 12 201 4.8 14.5 0.00 0.46 0.28 95 1006.3
20260506041023 12 190 3.2 9.7 0.00 0.46 0.28 95 1006.4
20260506040522 12 197 3.2 9.7 0.00 0.46 0.28 95 1006.3
20260506040027 12 310 4.8 9.7 0.00 0.46 0.28 95 1006.4
20260506035522 12 205 4.8 9.7 0.00 0.46 0.28 95 1006.4
20260506035021 12 194 4.8 9.7 0.03 0.46 0.28 95 1006.4
20260506034521 12 221 4.8 9.7 0.03 0.46 0.28 95 1006.5
20260506034020 12 208 3.2 9.7 0.03 0.46 0.28 95 1006.5
20260506033521 12 204 4.8 9.7 0.03 0.46 0.28 95 1006.5
20260506033019 12 207 3.2 9.7 0.03 0.46 0.28 95 1006.4
20260506032518 12 227 3.2 11.3 0.03 0.46 0.28 95 1006.4
20260506032019 12 192 4.8 11.3 0.03 0.46 0.28 95 1006.5
20260506031518 12 204 3.2 8.0 0.03 0.46 0.28 95 1006.5
20260506031017 12 168 3.2 9.7 0.03 0.46 0.28 95 1006.6
20260506030517 12 210 4.8 8.0 0.03 0.46 0.28 95 1006.5
20260506030016 12 206 3.2 6.4 0.03 0.46 0.28 95 1006.6
20260506025515 12 211 3.2 6.4 0.03 0.46 0.28 95 1006.6
20260506025017 12 211 3.2 6.4 0.00 0.43 0.25 95 1006.6
20260506024515 12 235 3.2 6.4 0.00 0.43 0.25 95 1006.6
20260506024015 12 196 1.6 8.0 0.00 0.43 0.25 95 1006.6
20260506023515 12 232 3.2 8.0 0.00 0.43 0.25 95 1006.6
20260506023020 12 215 1.6 8.0 0.00 0.43 0.25 95 1006.6
20260506022513 12 190 1.6 6.4 0.00 0.43 0.25 95 1006.6
20260506022017 12 189 1.6 6.4 0.00 0.43 0.25 95 1006.6
20260506021516 12 242 3.2 6.4 0.00 0.43 0.25 95 1006.7
20260506021016 12 180 0.0 6.4 0.00 0.43 0.25 95 1006.7
20260506020511 12 207 1.6 6.4 0.00 0.43 0.25 95 1006.9
20260506020013 12 209 3.2 8.0 0.00 0.43 0.25 95 1006.9
20260506015511 12 195 3.2 6.4 0.00 0.43 0.25 95 1006.9
20260506015011 12 167 1.6 11.3 0.00 0.43 0.25 95 1006.8
20260506014513 12 195 3.2 8.0 0.00 0.43 0.25 95 1006.8
20260506014010 12 195 3.2 9.7 0.00 0.43 0.25 95 1006.9